Погода в Ломоносове

Погода в Ломоносове : погода сейчас, прогноз погоды и архив. Всё, что Вы хотите узнать о погоде в Ломоносове!

Поиск расширенной информации на нашем сайте:

Другие новости

Новости СМИ2

Главная страница сайта

Новости сайта

03.07.2017

Напоминаем, что на нашем специализированном сайте Метеоцентр.Азия вы можете получить высокодетализированные автоматические прогнозы погоды по пунктам России, СНГ и мира в авиационном формате (включающие направление и скорость ветра, видимость, явления погоды, количество и форму облачности, нижнюю и верхнюю границу облачности).


Погода в Ломоносове - сегодня

Время (UTC), дата Ветер
(°,м/с) 
Видим.   Явления Облачность Т
(°С)
Тd
(°С)
f(%) Тe
(°С)
Pmin
(гПа)
dP
(гПа)
Po
(мм)
O2
(г/м3)
Тmin Tmax R s Состояние
почвы
06 18.07.18 030 (СВ) 10 км    ясно 
+22.7 +17 70 +35  1014.7  0.6  761  279  +21         
09 18.07.18 010 (С) 10 км    ясно 
+25.1 +16.9 60 +37  1014.2  -0.5  760  277           
12 18.07.18 050 (СВ) 4{10}  10 км    ясно 
+25.9 +16.7 57 +37  1013.3  -0.9  760  276           
15 18.07.18 030 (СВ) 5{10}  10 км    ясно 
+26.1 +15.8 53 +36  1012.7  -0.6  759  276           
21 18.07.18 040 (СВ) 20000 м    9/0 верхняя 
[Ci sp]
+22.6 +13.7 57 +29  1012.4  -0.3  759  280           
00 19.07.18 040 (СВ) 20000 м    10/0 верхняя 
[Ci]
+20.9 +13.8 64 +27  1012.8  0.4  759  281           
03 19.07.18 050 (СВ) 10 км    9/0 средняя, верхняя 
[Ac trans|Ci sp]
+20.1 +14.8 72 +28  1012.4  -0.4  759  282  +20         
09 19.07.18 030 (СВ) 20000 м    1/1 600 м 
[Cu hum]
+24.8 +15.8 57 +35  1012  -0.3  759  277           
12 19.07.18 040 (СВ) 5{10}  10 км    5/0 верхняя 
[Cc]
+25.4 +16.1 56 +36  1011.9  -0.1  758  276           
15 19.07.18 030 (СВ) 5{11}  10 км    5/0 средняя, верхняя 
[Ac trans|Cc]
+24.8 +15.8 57 +35  1011.3  -0.6  758  277           
21 19.07.18 040 (СВ) 2000 м  ливневой дождь  10/10 600 м кучево-дожд. 
[Cb calv]
+20.1 +17.8 87 +34  1011.6  0.2  758  281           
00 20.07.18 050 (СВ) 4000 м  слаб. ливневой дождь  10/10 300 м кучево-дожд. 
[Cb calv]
+19.2 +18.4 95 +35  1011.3  -0.3  758  281           
09 20.07.18 040 (СВ) 10 км    8/3 600 м средняя, верхняя 
[Cu med, cong|Ac trans|Ci fib]
+24.6 +18.3 68 +39  1008.6  -0.5  756  275           
12 20.07.18 040 (СВ) 4{10}  10 км    9/4 600 м кучево-дожд., средняя 
[Cb calv|Ac trans]
+22.2 +18.7 81 +38  1008.3  -0.3  756  277           
15 20.07.18 040 (СВ) 10 км    8/3 600 м кучево-дожд., средняя 
[Cb calv|Ac trans]
+23 +18.6 76 +38  1006.9  -1.4  755  276           
21 20.07.18 050 (СВ) 20000 м    9/4 600 м средняя 
[Sc|Ac trans]
+21.7 +19 85 +38  1006.6  -0.2  755  277           
00 21.07.18 050 (СВ) 20000 м    8/3 600 м средняя 
[Sc|Ac trans]
+21.3 +19.3 88 +38  1005.6  -1  754  277           
03 21.07.18 050 (СВ) 10 км    10/10 300 м 
[St]
+20.8 +19.5 92 +38  1005.2  -0.4  753  277  +20         
09 21.07.18 030 (СВ) 4000 м  дымка{ливн. осадки}  10/6 300 м кучево-дожд., средняя 
[Cb calv|Ac As]
+22 +20.8 93 +42  1004.6  -0.3  753  276           
15 21.07.18 230 (ЮЗ) 4000 м  дымка{ливн. осадки}  9/8 600 м кучево-дожд., средняя 
[Cb calv|Ac trans]
+21.3 +20.5 95 +41  1004.1  753  276           
21 21.07.18 тихо ()   4000 м  дымка  6/3 600 м средняя 
[Sc|Ac trans]
+20.5 +20 97 +39  1006.5  1.1  754  278           
00 22.07.18 тихо ()   4000 м  дымка  10/1 600 м средняя 
[Sc|Ac trans]
+20.1 +19.9 99 +38  1017.3  0.8  763  281           
09 22.07.18 240 (ЮЗ) 4000 м  дымка  5/3 600 м средняя 
[Sc|Ac trans]
+22.1 +19.4 85 +39  1009.4  0.9  757  277           
12 22.07.18 280 (З) 4000 м  дымка  8/1 600 м средняя, верхняя 
[Sc|Ac trans|Ci fib]
+22.4 +19.3 83 +39  1009.5  0.1  757  277           
15 22.07.18 270 (З) 10 км    8/5 300 м кучево-дожд., средняя, верхняя 
[Cb calv|Ac cuf|Ci fib]
+22.9 +17.1 70 +35  1009.5  757  278           
Время (UTC), дата Ветер
(°,м/с) 
Видим.   Явления Облачность Т
(°С)
Тd
(°С)
f(%) Тe
(°С)
Pmin
(гПа)
dP
(гПа)
Po
(мм)
O2
(г/м3)
Тmin Tmax R s Состояние
почвы

Для получения пояснительной информации подведите курсор к названию столбца.

ПОГОДА в Ломоносове - архив

Всё, что Вы хотите узнать о погоде в Ломоносове - удобно и подробно!

Выберите нужную дату (начиная с 1 января 2015* года) и нажмите кнопку "Найти".
Будут отображены архивные сводки погоды по пункту Ломоносов, начиная с указанной даты.


Отображать данные в формате CSV (для использования в таблицах Excel)


Внимание! Наш архив погоды предназначен исключительно для личного некоммерческого использования в познавательных целях. Если Вам необходимы официальные справки о состоянии погоды (для производственных, юридических, коммерческих и т.п. целей), обращайтесь в органы Росгидромета.

*Примечание: данная дата относится к архиву по метеостанциям СССР (Россия, СНГ, Балтия).
Архив по метеостанциям Зарубежной Европы и Азии (кроме Китая) хранится 10 дней, по другим регионам земного шара (Китай, Африка, Америка, Австралия, Океания) - 1 день.

Ломоносов - район местоположения метеостанции


Название, широта, долгота, высота метеостанции:
Ломоносов 59.9°ш. 29.8°д. 2 м над ур. моря [Российская Федерация]

Дополнительная информация

В oтличие oт бoльшинства пoгoдных сайтoв мы публикуем пoдрoбную метеoинфoрмацию в детальнoм прoфессиoнальнoм фoрмате.

Характеристики температуры и влажнoсти вoздуха измеряются на высoте 2 м в тени вдали oт зданий и деревьев.
Скoрoсть ветра измеряется на высoте 10 м (на урoвне рoста челoвека скoрoсть ветра ниже в 1.5-2 раза). Если метеoстанция нахoдится в гoрoде или в лесу, тo скoрoсть ветра занижена на 2-4 м/с пo сравнению с oткрытым местoм. Скoрoсть ветра над акватoриями крупных рек и oзёр, а также на вершинах хoлмoв на 2-5 м/с выше, чем в oбычных услoвиях.
Атмoсфернoе давление в разных тoчках местнoсти мoжет значительнo oтличаться oт давления на метеoстанции, в зависимoсти oт услoвий рельефа (при пoдъёме на 10 м давление пoнижается примернo на 1 мм рт.ст.).